Location: Dumpton Point
(51.3500°N, 1.4433°E)
Time: 03:38:13
(UTC+00:00)

COSMOS 2428 - Pass Details

Date: 09 April 2020
Orbit: 846 x 856 km, 70.9° (Epoch: 04 June)

Event Time Altitude Azimuth Distance (km) Brightness Sun altitude
Rises 22:53:53 0° 330° (NNW) 3,427 7.0 -29.2°
Reaches altitude 10° 22:56:49 10° 344° (NNW) 2,486 6.1 -29.3°
Maximum altitude 23:01:28 25° 39° (NE) 1,654 4.5 -29.5°
Enters shadow 23:03:41 20° 72° (ENE) 1,873 4.5 -29.6°
